TimeCDT,TemperatureF,Dew PointF,Humidity,Sea Level PressureIn,VisibilityMPH,Wind Direction,Wind SpeedMPH,Gust SpeedMPH,PrecipitationIn,Events,Conditions,WindDirDegrees,DateUTC
12:52 AM,53.1,48.0,83,29.82,10.0,ENE,4.6,-,N/A,,Clear,60,2012-10-02 05:52:00
1:52 AM,48.9,46.0,90,29.83,9.0,NNE,4.6,-,N/A,,Clear,20,2012-10-02 06:52:00
2:52 AM,48.0,46.0,93,29.83,9.0,NNE,3.5,-,N/A,,Clear,20,2012-10-02 07:52:00
3:52 AM,48.9,46.0,90,29.83,10.0,ENE,3.5,-,N/A,,Clear,60,2012-10-02 08:52:00
4:52 AM,48.9,46.9,93,29.84,10.0,North,8.1,-,N/A,,Clear,360,2012-10-02 09:52:00
5:52 AM,50.0,48.0,93,29.85,9.0,North,5.8,-,N/A,,Clear,10,2012-10-02 10:52:00
6:52 AM,46.9,46.0,97,29.86,6.0,NNE,4.6,-,N/A,,Clear,20,2012-10-02 11:52:00
8:52 AM,55.9,52.0,87,29.88,8.0,North,9.2,-,N/A,,Clear,360,2012-10-02 13:52:00
9:52 AM,64.0,51.1,63,29.88,10.0,NNE,12.7,-,N/A,,Clear,20,2012-10-02 14:52:00
10:52 AM,66.0,48.0,52,29.87,10.0,NNE,13.8,-,N/A,,Clear,20,2012-10-02 15:52:00
11:52 AM,69.1,46.0,44,29.87,10.0,NNE,15.0,-,N/A,,Clear,30,2012-10-02 16:52:00
12:52 PM,70.0,45.0,41,29.86,10.0,ENE,15.0,19.6,N/A,,Clear,60,2012-10-02 17:52:00
1:52 PM,70.0,45.0,41,29.85,10.0,NE,12.7,24.2,N/A,,Clear,50,2012-10-02 18:52:00
2:52 PM,69.1,44.1,40,29.84,10.0,North,13.8,21.9,N/A,,Clear,10,2012-10-02 19:52:00
3:52 PM,69.1,42.1,38,29.84,10.0,NE,11.5,-,N/A,,Clear,50,2012-10-02 20:52:00
4:52 PM,66.9,42.1,40,29.85,10.0,NNE,15.0,-,N/A,,Clear,30,2012-10-02 21:52:00
5:52 PM,64.0,43.0,46,29.86,10.0,NE,12.7,-,N/A,,Clear,40,2012-10-02 22:52:00
6:52 PM,60.1,44.1,55,29.87,10.0,NNE,6.9,-,N/A,,Clear,30,2012-10-02 23:52:00
7:52 PM,55.9,45.0,67,29.89,10.0,NNE,3.5,-,N/A,,Overcast,20,2012-10-03 00:52:00
9:52 PM,60.1,50.0,69,29.91,10.0,NNE,6.9,-,N/A,,Overcast,20,2012-10-03 02:52:00
10:52 PM,59.0,53.1,81,29.91,10.0,NNE,6.9,-,N/A,,Overcast,20,2012-10-03 03:52:00
11:52 PM,60.1,54.0,80,29.90,10.0,NNE,6.9,-,N/A,,Overcast,20,2012-10-03 04:52:00